Back to catalog

STARLINK-37151

AliveCommunicationsVLEO
NORAD 68290·PAYLOAD·🇺🇸 United States

Launched Mar 19, 2026 from Vandenberg Space Force Base

Loading…

Next Passes (next 24 hours)

TLE

FreshSource: CelesTrak SupGP

Epoch: Sep 14, 2026, 15:09 UTC

1 68290C 26055AE  26257.63173611  .00062149  00000+0  18360-2 0  2571
2 68290  53.1578 157.3061 0001279  93.7328 135.7598 15.34363267    19

Track STARLINK-37151 in real time with AllMySat

Download on the App Store